Lanzarote > ESTACION METEOROLÓGICA Teguise II

DATOS ACTUALES Online

Ultima actulizacion 28 minutos

18.9 ºC

Temperatura

91

Humedad (%)

977.22

Presión (mb)

2.6

Precipitación (mm)

31.1 N

Viento (Km/h)

DATOS DIARIOS

Temperatura últimas 24 horas (ºC)

Humedad últimas 24 horas (%)

Presión atmosférica últimas 24 horas (mb)

Precipitaciones últimas 23 horas (mm)

Viento últimas 24 horas (Km/h)

Hora Temperatura (°C) ºC Precipitación (mm) mm Presión (mb) mb Humedad (%) % Viento (Km/h) km/h
24 - 23:00 20.4 0 978 83 27.8 NW
25 - 00:00 20.1 0 979 84 21.1 NW
25 - 01:00 20 0 978 84 24.6 NW
25 - 02:00 20.2 0 978 83 18.7 NW
25 - 03:00 19.9 0 977 87 23.5 W
25 - 04:00 19.9 0 977 89 16.4 W
25 - 05:00 19.9 0 977 89 16.5 W
25 - 06:00 20 0 977 89 24.4 W
25 - 07:00 19.9 0 978 88 24.4 W
25 - 08:00 20.1 0 979 88 15.9 W
25 - 09:00 20.5 0 979 87 20.9 W
25 - 10:00 20.5 0.1 979 87 29.1 W
25 - 11:00 21.3 0.1 979 82 22.3 NW
25 - 12:00 21 0.2 979 82 23.6 NW
25 - 13:00 21.1 0.3 978 86 27 W
25 - 14:00 21 0.6 977 86 28 W
25 - 15:00 21.1 0.7 977 85 25.8 W
25 - 16:00 20.6 0.9 977 85 23.3 W
25 - 17:00 20.3 1 977 88 28.7 NW
25 - 18:00 19.7 1.4 978 88 24.8 N
25 - 19:00 19.6 1.9 978 90 21.7 NW
25 - 20:00 19.1 2.2 978 90 22.3 N
25 - 21:00 19.4 2.5 978 91 26 N
25 - 22:00 18.9 2.6 977 91 31.5 N
25 - 23:00 18.9 2.6 977 91 31.1 N
Apalmet utiliza cookies propias y de terceros para mejorar la usabilidad y la experiencia web. Política de cookies.